﻿_id,日時,平均風速(m/s),平均風向,最大瞬間風速(m/s),最大風速時風向,気温(℃),湿度(%),10分間移動積算雨量(mm),1時間移動積算雨量(mm),日雨量(mm),累計雨量(mm),日射(日積算)(MJ/m2),日照(日積算)(min),現地気圧(hPa),海面気圧(hPa)
1,2021-04-26T00:00:00,4,北北西,9.5,北北東,10,53.4,0,0,0,0,18.19,352,1006.8,1021
2,2021-04-26T00:01:00,4,北北西,9.5,北北東,9.9,53.1,0,0,0,0,0,0,1006.8,1021
3,2021-04-26T00:02:00,4,北北西,9.5,北北東,10,53.5,0,0,0,0,0,0,1006.8,1021
4,2021-04-26T00:03:00,4,北,9.6,北北西,10.1,53.8,0,0,0,0,0,0,1006.8,1021
5,2021-04-26T00:04:00,3.9,北,9.6,北北西,10,53.5,0,0,0,0,0,0,1006.8,1021
6,2021-04-26T00:05:00,4,北,9.6,北北西,10.1,53.3,0,0,0,0,0,0,1006.8,1021
7,2021-04-26T00:06:00,4.1,北,11.7,北北東,10,52.9,0,0,0,0,0,0,1006.7,1020.9
8,2021-04-26T00:07:00,4.1,北,11.7,北北東,10,52.9,0,0,0,0,0,0,1006.8,1021
9,2021-04-26T00:08:00,4.3,北,11.7,北北東,9.9,53.2,0,0,0,0,0,0,1006.8,1021
10,2021-04-26T00:09:00,4.5,北,11.7,北北東,9.9,53.3,0,0,0,0,0,0,1006.8,1021
11,2021-04-26T00:10:00,4.4,北,11.7,北北東,9.9,53.1,0,0,0,0,0,0,1006.8,1021
12,2021-04-26T00:11:00,4.5,北,11.7,北北東,9.9,53.2,0,0,0,0,0,0,1006.8,1021
13,2021-04-26T00:12:00,4.6,北北西,11.7,北北東,9.9,53.3,0,0,0,0,0,0,1006.8,1021
14,2021-04-26T00:13:00,4.5,北北西,11.7,北北東,9.8,52.9,0,0,0,0,0,0,1006.8,1021
15,2021-04-26T00:14:00,4.5,北北西,11.7,北北東,9.8,52.9,0,0,0,0,0,0,1006.8,1021
16,2021-04-26T00:15:00,4.5,北北西,11.7,北北東,9.9,53.3,0,0,0,0,0,0,1006.8,1021
17,2021-04-26T00:16:00,4.5,北北西,10.4,北北東,9.9,52.9,0,0,0,0,0,0,1006.8,1021
18,2021-04-26T00:17:00,4.6,北北西,10.4,北北東,10.1,52.8,0,0,0,0,0,0,1006.8,1021
19,2021-04-26T00:18:00,4.6,北北西,10.4,北北東,9.9,52.1,0,0,0,0,0,0,1006.8,1021
20,2021-04-26T00:19:00,4.3,北北西,10.4,北北東,9.8,52.3,0,0,0,0,0,0,1006.9,1021.1
21,2021-04-26T00:20:00,4.6,北,10.4,北北東,9.8,52.1,0,0,0,0,0,0,1006.8,1021
22,2021-04-26T00:21:00,4.8,北,10.4,北北東,9.8,50.8,0,0,0,0,0,0,1006.8,1021
23,2021-04-26T00:22:00,4.7,北,10.4,北北東,9.9,50.4,0,0,0,0,0,0,1006.8,1021
24,2021-04-26T00:23:00,4.7,北,10.4,北北東,9.8,50.4,0,0,0,0,0,0,1006.8,1021
25,2021-04-26T00:24:00,4.7,北,10.4,北北東,9.8,50.6,0,0,0,0,0,0,1006.7,1020.9
26,2021-04-26T00:25:00,4.5,北,10.1,北,9.9,51.1,0,0,0,0,0,0,1006.8,1021
27,2021-04-26T00:26:00,4.2,北,10.1,北,9.8,51.3,0,0,0,0,0,0,1006.8,1021
28,2021-04-26T00:27:00,3.9,北,10.1,北,9.7,51.2,0,0,0,0,0,0,1006.8,1021
29,2021-04-26T00:28:00,3.9,北,10.1,北,9.7,51.7,0,0,0,0,0,0,1006.8,1021
30,2021-04-26T00:29:00,4.1,北,10.1,北,10,52.4,0,0,0,0,0,0,1006.8,1021
31,2021-04-26T00:30:00,4,北,9.2,北東,9.9,51.7,0,0,0,0,0,0,1006.7,1020.9
32,2021-04-26T00:31:00,3.8,北,9.2,北東,9.8,50.6,0,0,0,0,0,0,1006.8,1021
33,2021-04-26T00:32:00,3.7,北,9.2,北東,9.8,51,0,0,0,0,0,0,1006.7,1020.9
34,2021-04-26T00:33:00,3.6,北,9.2,北東,9.7,50.9,0,0,0,0,0,0,1006.7,1020.9
35,2021-04-26T00:34:00,3.5,北,9.2,北東,9.7,51.3,0,0,0,0,0,0,1006.7,1020.9
36,2021-04-26T00:35:00,3.4,北,9.2,北東,9.7,51.7,0,0,0,0,0,0,1006.7,1020.9
37,2021-04-26T00:36:00,3.4,北,9.2,北東,9.6,51.8,0,0,0,0,0,0,1006.7,1020.9
38,2021-04-26T00:37:00,3.5,北,9.8,北北東,9.7,51.7,0,0,0,0,0,0,1006.7,1020.9
39,2021-04-26T00:38:00,3.4,北,9.8,北北東,9.7,51.1,0,0,0,0,0,0,1006.7,1020.9
40,2021-04-26T00:39:00,3.3,北,9.8,北北東,9.7,50.6,0,0,0,0,0,0,1006.7,1020.9
41,2021-04-26T00:40:00,3.2,北北西,9.8,北北東,9.7,50.4,0,0,0,0,0,0,1006.7,1020.9
42,2021-04-26T00:41:00,3.2,北北西,9.8,北北東,9.7,50.2,0,0,0,0,0,0,1006.7,1020.9
43,2021-04-26T00:42:00,3.4,北北西,9.8,北北東,9.7,50.2,0,0,0,0,0,0,1006.7,1020.9
44,2021-04-26T00:43:00,3.5,北,9.8,北北東,9.7,50.2,0,0,0,0,0,0,1006.8,1021
45,2021-04-26T00:44:00,3.6,北,11,北北東,9.8,50.5,0,0,0,0,0,0,1006.7,1020.9
46,2021-04-26T00:45:00,3.8,北北西,11,北北東,9.7,49.9,0,0,0,0,0,0,1006.7,1020.9
47,2021-04-26T00:46:00,3.9,北北西,11,北北東,9.8,49.4,0,0,0,0,0,0,1006.6,1020.8
48,2021-04-26T00:47:00,3.9,北北西,11,北北東,9.7,49.4,0,0,0,0,0,0,1006.6,1020.8
49,2021-04-26T00:48:00,4.1,北北西,11,北北東,9.8,49.4,0,0,0,0,0,0,1006.6,1020.8
50,2021-04-26T00:49:00,3.9,北北西,11,北北東,9.7,49.4,0,0,0,0,0,0,1006.6,1020.8
51,2021-04-26T00:50:00,4,北,11,北北東,9.7,49.7,0,0,0,0,0,0,1006.6,1020.8
52,2021-04-26T00:51:00,4,北,11,北北東,9.8,49.7,0,0,0,0,0,0,1006.7,1020.9
53,2021-04-26T00:52:00,3.9,北,11,北北東,9.7,49.8,0,0,0,0,0,0,1006.7,1020.9
54,2021-04-26T00:53:00,4.1,北,11,北北東,9.7,50,0,0,0,0,0,0,1006.6,1020.8
55,2021-04-26T00:54:00,4.1,北,9.1,北西,9.7,49.8,0,0,0,0,0,0,1006.6,1020.8
56,2021-04-26T00:55:00,3.9,北,9,北,9.7,49.9,0,0,0,0,0,0,1006.7,1020.9
57,2021-04-26T00:56:00,3.7,北,9,北,9.7,50.2,0,0,0,0,0,0,1006.7,1020.9
58,2021-04-26T00:57:00,3.7,北,9,北,9.6,50.1,0,0,0,0,0,0,1006.7,1020.9
59,2021-04-26T00:58:00,3.5,北,9,北,9.6,50.1,0,0,0,0,0,0,1006.7,1020.9
60,2021-04-26T00:59:00,3.6,北北西,9,北,9.6,50.3,0,0,0,0,0,0,1006.7,1020.9
61,2021-04-26T01:00:00,3.5,北北西,9,北,9.6,50.5,0,0,0,0,0,0,1006.7,1020.9
62,2021-04-26T01:01:00,3.6,北北西,9,北,9.5,50.6,0,0,0,0,0,0,1006.8,1021
63,2021-04-26T01:02:00,3.7,北北西,9,北,9.6,50.9,0,0,0,0,0,0,1006.7,1020.9
64,2021-04-26T01:03:00,3.4,北北西,7.7,北,9.5,51.1,0,0,0,0,0,0,1006.7,1020.9
65,2021-04-26T01:04:00,3.3,北北西,7.7,北,9.6,50.9,0,0,0,0,0,0,1006.7,1020.9
66,2021-04-26T01:05:00,3.2,北北西,7.7,北,9.6,50.6,0,0,0,0,0,0,1006.7,1020.9
67,2021-04-26T01:06:00,3.4,北北西,7.7,北,9.7,50.7,0,0,0,0,0,0,1006.7,1020.9
68,2021-04-26T01:07:00,3.2,北北西,7.3,北,9.6,50.4,0,0,0,0,0,0,1006.8,1021
69,2021-04-26T01:08:00,3.1,北北西,7.3,北,9.5,50.4,0,0,0,0,0,0,1006.8,1021
70,2021-04-26T01:09:00,3.3,北,10.2,北北東,9.6,50.6,0,0,0,0,0,0,1006.7,1020.9
71,2021-04-26T01:10:00,3.3,北,10.2,北北東,9.6,50,0,0,0,0,0,0,1006.7,1020.9
72,2021-04-26T01:11:00,3.2,北,10.2,北北東,9.6,49.6,0,0,0,0,0,0,1006.7,1020.9
73,2021-04-26T01:12:00,3.1,北,10.2,北北東,9.6,49.7,0,0,0,0,0,0,1006.7,1020.9
74,2021-04-26T01:13:00,3.4,北,10.2,北北東,9.7,49.9,0,0,0,0,0,0,1006.8,1021
75,2021-04-26T01:14:00,3.6,北,10.2,北北東,9.7,50.2,0,0,0,0,0,0,1006.8,1021
76,2021-04-26T01:15:00,3.6,北,10.2,北北東,9.6,49.8,0,0,0,0,0,0,1006.8,1021
77,2021-04-26T01:16:00,3.5,北,10.2,北北東,9.6,49.9,0,0,0,0,0,0,1006.8,1021
78,2021-04-26T01:17:00,3.7,北,10.2,北北東,9.6,50,0,0,0,0,0,0,1006.7,1020.9
79,2021-04-26T01:18:00,3.7,北,10.2,北北東,9.5,50.3,0,0,0,0,0,0,1006.8,1021
80,2021-04-26T01:19:00,3.5,北,8.7,北北東,9.4,50.6,0,0,0,0,0,0,1006.7,1020.9
81,2021-04-26T01:20:00,3.6,北,10.6,北北東,9.4,50.6,0,0,0,0,0,0,1006.7,1020.9
82,2021-04-26T01:21:00,3.9,北,10.6,北北東,9.7,50.7,0,0,0,0,0,0,1006.7,1020.9
83,2021-04-26T01:22:00,4.1,北,10.6,北北東,9.8,49.9,0,0,0,0,0,0,1006.6,1020.8
84,2021-04-26T01:23:00,3.7,北,10.6,北北東,9.7,49.2,0,0,0,0,0,0,1006.6,1020.8
85,2021-04-26T01:24:00,3.6,北,10.6,北北東,9.5,49.1,0,0,0,0,0,0,1006.7,1020.9
86,2021-04-26T01:25:00,3.5,北,10.6,北北東,9.4,49.4,0,0,0,0,0,0,1006.7,1020.9
87,2021-04-26T01:26:00,3.6,北,10.6,北北東,9.4,49.9,0,0,0,0,0,0,1006.6,1020.8
88,2021-04-26T01:27:00,3.7,北,10.6,北北東,9.5,49.8,0,0,0,0,0,0,1006.5,1020.7
89,2021-04-26T01:28:00,3.7,北,10.6,北北東,9.5,49.8,0,0,0,0,0,0,1006.5,1020.7
90,2021-04-26T01:29:00,3.6,北,10.6,北北東,9.4,49.7,0,0,0,0,0,0,1006.5,1020.7
91,2021-04-26T01:30:00,3.5,北,9.2,北北東,9.4,49.9,0,0,0,0,0,0,1006.5,1020.7
92,2021-04-26T01:31:00,3.2,北北西,8.9,北,9.4,50,0,0,0,0,0,0,1006.5,1020.7
93,2021-04-26T01:32:00,3,北北西,8.9,北,9.5,49.9,0,0,0,0,0,0,1006.5,1020.7
94,2021-04-26T01:33:00,3.1,北北西,8.9,北,9.5,49.7,0,0,0,0,0,0,1006.5,1020.7
95,2021-04-26T01:34:00,3.1,北北西,8.9,北,9.5,49.7,0,0,0,0,0,0,1006.5,1020.7
96,2021-04-26T01:35:00,3.2,北北西,8.9,北,9.4,50,0,0,0,0,0,0,1006.5,1020.7
97,2021-04-26T01:36:00,3.3,北,8.9,北,9.4,50.3,0,0,0,0,0,0,1006.5,1020.7
98,2021-04-26T01:37:00,3.1,北,8.6,北,9.5,50.3,0,0,0,0,0,0,1006.5,1020.7
99,2021-04-26T01:38:00,3.2,北,8.6,北,9.4,50.6,0,0,0,0,0,0,1006.5,1020.7
100,2021-04-26T01:39:00,3.4,北,8.6,北,9.3,50.4,0,0,0,0,0,0,1006.5,1020.7
101,2021-04-26T01:40:00,3.3,北,8.6,北,9.4,50.3,0,0,0,0,0,0,1006.6,1020.8
102,2021-04-26T01:41:00,3.2,北,8.6,北,9.3,50.2,0,0,0,0,0,0,1006.6,1020.8
103,2021-04-26T01:42:00,3.2,北北西,8.6,北,9.3,50.3,0,0,0,0,0,0,1006.5,1020.7
104,2021-04-26T01:43:00,3.3,北北西,8.6,北,9.3,50.4,0,0,0,0,0,0,1006.5,1020.7
105,2021-04-26T01:44:00,3.5,北北西,8.6,北,9.4,50.2,0,0,0,0,0,0,1006.5,1020.7
106,2021-04-26T01:45:00,3.4,北北西,8.6,北,9.3,50.1,0,0,0,0,0,0,1006.5,1020.7
107,2021-04-26T01:46:00,3.2,北北西,7.4,北,9.3,50.4,0,0,0,0,0,0,1006.5,1020.7
108,2021-04-26T01:47:00,3.3,北北西,7.4,北,9.4,50.7,0,0,0,0,0,0,1006.5,1020.7
109,2021-04-26T01:48:00,3.4,北北西,7.4,北,9.5,50.6,0,0,0,0,0,0,1006.5,1020.7
110,2021-04-26T01:49:00,3.2,北,7.4,北,9.4,50.5,0,0,0,0,0,0,1006.5,1020.7
111,2021-04-26T01:50:00,3.2,北,7.4,北,9.3,50.4,0,0,0,0,0,0,1006.5,1020.7
112,2021-04-26T01:51:00,3.2,北,7.4,北,9.3,50.4,0,0,0,0,0,0,1006.5,1020.7
113,2021-04-26T01:52:00,3.2,北,7.4,北,9.2,50.3,0,0,0,0,0,0,1006.5,1020.7
114,2021-04-26T01:53:00,3,北,7.4,北,9.2,50.4,0,0,0,0,0,0,1006.4,1020.6
115,2021-04-26T01:54:00,2.8,北,6.2,北,9.3,50.6,0,0,0,0,0,0,1006.4,1020.6
116,2021-04-26T01:55:00,2.9,北,6.2,北,9.2,50.4,0,0,0,0,0,0,1006.4,1020.6
117,2021-04-26T01:56:00,2.8,北北西,6.2,北,9.2,50.5,0,0,0,0,0,0,1006.4,1020.6
118,2021-04-26T01:57:00,2.7,北北西,5.9,北西,9.2,50.4,0,0,0,0,0,0,1006.4,1020.6
119,2021-04-26T01:58:00,2.5,北北西,5.9,北西,9.2,50.4,0,0,0,0,0,0,1006.5,1020.7
120,2021-04-26T01:59:00,2.5,北北西,5.9,北西,9.3,50.4,0,0,0,0,0,0,1006.4,1020.6
121,2021-04-26T02:00:00,2.5,北北西,5.9,北西,9.2,50.3,0,0,0,0,0,0,1006.5,1020.7
122,2021-04-26T02:01:00,2.6,北北西,5.9,北西,9.2,50.4,0,0,0,0,0,0,1006.5,1020.7
123,2021-04-26T02:02:00,2.6,北北西,5.9,北西,9.1,50.3,0,0,0,0,0,0,1006.5,1020.7
124,2021-04-26T02:03:00,2.6,北北西,5.9,北西,9.2,50.4,0,0,0,0,0,0,1006.4,1020.6
125,2021-04-26T02:04:00,2.7,北北西,6,北西,9.1,50.6,0,0,0,0,0,0,1006.5,1020.7
126,2021-04-26T02:05:00,2.8,北北西,6,北西,9.2,50.3,0,0,0,0,0,0,1006.6,1020.8
127,2021-04-26T02:06:00,2.8,北北西,6,北西,9.2,50,0,0,0,0,0,0,1006.5,1020.7
128,2021-04-26T02:07:00,2.9,北北西,7.1,北北東,9.2,50.4,0,0,0,0,0,0,1006.5,1020.7
129,2021-04-26T02:08:00,3.4,北北西,10.1,北,9.4,50.7,0,0,0,0,0,0,1006.5,1020.7
130,2021-04-26T02:09:00,3.7,北北西,10.1,北,9.4,50.4,0,0,0,0,0,0,1006.6,1020.8
131,2021-04-26T02:10:00,3.9,北,10.1,北,9.5,50.1,0,0,0,0,0,0,1006.6,1020.8
132,2021-04-26T02:11:00,4,北,10.1,北,9.3,49.3,0,0,0,0,0,0,1006.6,1020.8
133,2021-04-26T02:12:00,4.1,北北西,10.1,北,9.2,49.2,0,0,0,0,0,0,1006.6,1020.8
134,2021-04-26T02:13:00,4.2,北北西,10.1,北,9.2,49.2,0,0,0,0,0,0,1006.6,1020.8
135,2021-04-26T02:14:00,4,北北西,10.1,北,9.2,49.4,0,0,0,0,0,0,1006.6,1020.8
136,2021-04-26T02:15:00,4,北,10.1,北,9.2,49.7,0,0,0,0,0,0,1006.5,1020.7
137,2021-04-26T02:16:00,4.2,北,10.1,北,9.2,49.6,0,0,0,0,0,0,1006.5,1020.7
138,2021-04-26T02:17:00,4.2,北,10.1,北,9.3,49.6,0,0,0,0,0,0,1006.6,1020.8
139,2021-04-26T02:18:00,3.8,北北西,9.1,北北東,9.2,49.3,0,0,0,0,0,0,1006.5,1020.7
140,2021-04-26T02:19:00,3.5,北北西,7.9,北北東,9.2,49.2,0,0,0,0,0,0,1006.5,1020.7
141,2021-04-26T02:20:00,3.4,北北西,7.9,北北東,9.2,49.5,0,0,0,0,0,0,1006.5,1020.7
142,2021-04-26T02:21:00,3.5,北北西,7.9,北北東,9.2,49.6,0,0,0,0,0,0,1006.5,1020.7
143,2021-04-26T02:22:00,3.3,北北西,7.9,北北東,9.2,49.2,0,0,0,0,0,0,1006.5,1020.7
144,2021-04-26T02:23:00,3.4,北北西,7.9,北北東,9.1,49.3,0,0,0,0,0,0,1006.6,1020.8
145,2021-04-26T02:24:00,3.5,北北西,7.9,北北東,9,49.3,0,0,0,0,0,0,1006.5,1020.7
146,2021-04-26T02:25:00,3.4,北北西,7.3,北,9.1,49.6,0,0,0,0,0,0,1006.6,1020.8
147,2021-04-26T02:26:00,3.2,北北西,7.3,北,9,49.6,0,0,0,0,0,0,1006.5,1020.7
148,2021-04-26T02:27:00,3.2,北北西,7.3,北,9,49.6,0,0,0,0,0,0,1006.5,1020.7
149,2021-04-26T02:28:00,3,北北西,7.3,北,9,49.6,0,0,0,0,0,0,1006.5,1020.7
150,2021-04-26T02:29:00,3.1,北北西,7.3,北,9.1,49.8,0,0,0,0,0,0,1006.5,1020.7
151,2021-04-26T02:30:00,2.9,北北西,7.3,北,9.1,50,0,0,0,0,0,0,1006.5,1020.7
152,2021-04-26T02:31:00,2.8,北北西,6.3,北西,9,49.9,0,0,0,0,0,0,1006.5,1020.7
153,2021-04-26T02:32:00,2.7,北北西,6.3,北西,9,50,0,0,0,0,0,0,1006.5,1020.7
154,2021-04-26T02:33:00,2.7,北北西,6.3,北西,9.1,50.2,0,0,0,0,0,0,1006.5,1020.7
155,2021-04-26T02:34:00,2.7,北北西,7.4,北,9,50.2,0,0,0,0,0,0,1006.5,1020.7
156,2021-04-26T02:35:00,2.8,北,7.5,北北東,9,50.3,0,0,0,0,0,0,1006.5,1020.7
157,2021-04-26T02:36:00,2.9,北,8.2,北北東,9,50.4,0,0,0,0,0,0,1006.5,1020.7
158,2021-04-26T02:37:00,3.1,北,8.2,北北東,9,50.2,0,0,0,0,0,0,1006.4,1020.6
159,2021-04-26T02:38:00,3.3,北,8.2,北北東,9.1,49.7,0,0,0,0,0,0,1006.4,1020.6
160,2021-04-26T02:39:00,3.3,北,8.2,北北東,9.2,49.5,0,0,0,0,0,0,1006.4,1020.6
161,2021-04-26T02:40:00,3.4,北,8.2,北北東,9.1,49.4,0,0,0,0,0,0,1006.5,1020.7
162,2021-04-26T02:41:00,3.4,北,8.2,北北東,9,49.6,0,0,0,0,0,0,1006.4,1020.6
163,2021-04-26T02:42:00,3.6,北,8.2,北北東,9,49.6,0,0,0,0,0,0,1006.4,1020.6
164,2021-04-26T02:43:00,3.6,北,8.2,北北東,9,49.5,0,0,0,0,0,0,1006.5,1020.7
165,2021-04-26T02:44:00,3.5,北,8.3,北北東,9.1,49.5,0,0,0,0,0,0,1006.4,1020.6
166,2021-04-26T02:45:00,3.4,北,8.3,北北東,9,49.4,0,0,0,0,0,0,1006.4,1020.6
167,2021-04-26T02:46:00,3.2,北,8.3,北北東,9.1,49.7,0,0,0,0,0,0,1006.5,1020.7
168,2021-04-26T02:47:00,3,北,8.3,北北東,9,49.9,0,0,0,0,0,0,1006.5,1020.7
169,2021-04-26T02:48:00,3,北北西,8.3,北北東,9,49.9,0,0,0,0,0,0,1006.4,1020.6
170,2021-04-26T02:49:00,3,北北西,8.3,北北東,9,49.6,0,0,0,0,0,0,1006.5,1020.7
171,2021-04-26T02:50:00,3.1,北北西,8.3,北北東,9.1,49.6,0,0,0,0,0,0,1006.5,1020.7
172,2021-04-26T02:51:00,3.1,北,8.3,北北東,9.1,49.3,0,0,0,0,0,0,1006.5,1020.7
173,2021-04-26T02:52:00,3,北,8.3,北北東,9.1,49.3,0,0,0,0,0,0,1006.5,1020.7
174,2021-04-26T02:53:00,3.2,北,8.3,北北東,9.1,49.3,0,0,0,0,0,0,1006.4,1020.6
175,2021-04-26T02:54:00,3.2,北,7.9,北,9.1,48.9,0,0,0,0,0,0,1006.5,1020.7
176,2021-04-26T02:55:00,3.1,北,7.9,北,9.1,49,0,0,0,0,0,0,1006.5,1020.7
177,2021-04-26T02:56:00,3.1,北,7.9,北,9.1,49.2,0,0,0,0,0,0,1006.5,1020.7
178,2021-04-26T02:57:00,3.2,北,7.9,北,9,49.3,0,0,0,0,0,0,1006.5,1020.7
179,2021-04-26T02:58:00,3.1,北,7.9,北,9,49.6,0,0,0,0,0,0,1006.5,1020.7
180,2021-04-26T02:59:00,3,北,7,北西,9,49.3,0,0,0,0,0,0,1006.5,1020.7
181,2021-04-26T03:00:00,2.8,北北西,7,北西,9,49.2,0,0,0,0,0,0,1006.5,1020.7
182,2021-04-26T03:01:00,2.8,北,7.3,北北東,9.2,49.8,0,0,0,0,0,0,1006.5,1020.7
183,2021-04-26T03:02:00,2.8,北,7.3,北北東,9.2,49.6,0,0,0,0,0,0,1006.4,1020.6
184,2021-04-26T03:03:00,2.6,北,7.3,北北東,9.1,49.4,0,0,0,0,0,0,1006.5,1020.7
185,2021-04-26T03:04:00,2.7,北,7.3,北北東,9.2,49.2,0,0,0,0,0,0,1006.5,1020.7
186,2021-04-26T03:05:00,2.8,北,7.3,北北東,9,49.4,0,0,0,0,0,0,1006.5,1020.7
187,2021-04-26T03:06:00,2.8,北,7.3,北北東,9,49.9,0,0,0,0,0,0,1006.4,1020.6
188,2021-04-26T03:07:00,2.6,北,7.3,北北東,8.9,50.2,0,0,0,0,0,0,1006.4,1020.6
189,2021-04-26T03:08:00,2.6,北,7.3,北北東,8.9,50.1,0,0,0,0,0,0,1006.4,1020.6
190,2021-04-26T03:09:00,2.6,北,7.3,北北東,8.9,49.7,0,0,0,0,0,0,1006.4,1020.6
191,2021-04-26T03:10:00,2.7,北,7.3,北北東,9,49.4,0,0,0,0,0,0,1006.4,1020.6
192,2021-04-26T03:11:00,2.6,北,7,北,9.1,49.1,0,0,0,0,0,0,1006.4,1020.6
193,2021-04-26T03:12:00,2.5,北北西,6,北西,9,49.3,0,0,0,0,0,0,1006.4,1020.6
194,2021-04-26T03:13:00,2.4,北北西,6,北西,9,49.5,0,0,0,0,0,0,1006.4,1020.6
195,2021-04-26T03:14:00,2.4,北北西,7,北,8.9,49.7,0,0,0,0,0,0,1006.4,1020.6
196,2021-04-26T03:15:00,2.4,北北西,7.1,北西,9,49.3,0,0,0,0,0,0,1006.4,1020.6
197,2021-04-26T03:16:00,2.4,北北西,7.1,北西,9,49.2,0,0,0,0,0,0,1006.4,1020.6
198,2021-04-26T03:17:00,2.7,北北西,7.1,北西,8.9,49.9,0,0,0,0,0,0,1006.4,1020.6
199,2021-04-26T03:18:00,2.8,北,7.1,北西,8.7,50.8,0,0,0,0,0,0,1006.4,1020.6
200,2021-04-26T03:19:00,2.8,北,7.1,北西,8.6,51.5,0,0,0,0,0,0,1006.4,1020.6
201,2021-04-26T03:20:00,2.9,北,7.1,北西,8.7,51.7,0,0,0,0,0,0,1006.5,1020.7
202,2021-04-26T03:21:00,3,北,7.1,北西,8.8,51.9,0,0,0,0,0,0,1006.5,1020.7
203,2021-04-26T03:22:00,2.9,北,7.1,北西,8.6,51.5,0,0,0,0,0,0,1006.4,1020.6
204,2021-04-26T03:23:00,3,北,7.1,北西,8.7,51.6,0,0,0,0,0,0,1006.5,1020.7
205,2021-04-26T03:24:00,2.9,北,7.1,北西,8.7,51.2,0,0,0,0,0,0,1006.5,1020.7
206,2021-04-26T03:25:00,2.9,北,5.9,北北東,8.8,51,0,0,0,0,0,0,1006.5,1020.7
207,2021-04-26T03:26:00,3.1,北,7.1,北北東,8.9,50.5,0,0,0,0,0,0,1006.4,1020.6
208,2021-04-26T03:27:00,2.8,北,7.1,北北東,8.8,50.4,0,0,0,0,0,0,1006.5,1020.7
209,2021-04-26T03:28:00,2.8,北,7.1,北北東,8.8,50.7,0,0,0,0,0,0,1006.5,1020.7
210,2021-04-26T03:29:00,2.7,北,7.1,北北東,8.8,50.8,0,0,0,0,0,0,1006.5,1020.7
211,2021-04-26T03:30:00,2.6,北,7.1,北北東,8.8,50.1,0,0,0,0,0,0,1006.4,1020.6
212,2021-04-26T03:31:00,2.5,北,7.1,北北東,8.8,50.1,0,0,0,0,0,0,1006.5,1020.7
213,2021-04-26T03:32:00,2.6,北,7.1,北北東,8.8,50.3,0,0,0,0,0,0,1006.5,1020.7
214,2021-04-26T03:33:00,2.7,北,7.1,北北東,8.8,50.1,0,0,0,0,0,0,1006.5,1020.7
215,2021-04-26T03:34:00,2.8,北,7.1,北北東,8.9,50,0,0,0,0,0,0,1006.6,1020.8
216,2021-04-26T03:35:00,2.7,北,7.1,北北東,8.9,49.4,0,0,0,0,0,0,1006.5,1020.7
217,2021-04-26T03:36:00,2.7,北北西,7.6,北西,8.9,48.8,0,0,0,0,0,0,1006.5,1020.7
218,2021-04-26T03:37:00,2.7,北北西,7.6,北西,9,48.5,0,0,0,0,0,0,1006.6,1020.8
219,2021-04-26T03:38:00,2.6,北北西,7.6,北西,9,48.4,0,0,0,0,0,0,1006.6,1020.8
220,2021-04-26T03:39:00,2.6,北北西,7.6,北西,9,48.5,0,0,0,0,0,0,1006.6,1020.8
221,2021-04-26T03:40:00,2.7,北北西,7.6,北西,9,48.6,0,0,0,0,0,0,1006.6,1020.8
222,2021-04-26T03:41:00,2.8,北北西,7.6,北西,9,48.8,0,0,0,0,0,0,1006.6,1020.8
223,2021-04-26T03:42:00,2.8,北北西,7.6,北西,9,49,0,0,0,0,0,0,1006.6,1020.8
224,2021-04-26T03:43:00,2.8,北,7.6,北西,9,49,0,0,0,0,0,0,1006.6,1020.8
225,2021-04-26T03:44:00,2.6,北北西,7.6,北西,8.9,48.7,0,0,0,0,0,0,1006.7,1020.9
226,2021-04-26T03:45:00,2.6,北,7.6,北西,9,48.7,0,0,0,0,0,0,1006.6,1020.8
227,2021-04-26T03:46:00,2.5,北,5.6,北,9,48.6,0,0,0,0,0,0,1006.7,1020.9
228,2021-04-26T03:47:00,2.6,北,7.4,北,9,48.4,0,0,0,0,0,0,1006.6,1020.8
229,2021-04-26T03:48:00,2.6,北,7.4,北,9,48.5,0,0,0,0,0,0,1006.6,1020.8
230,2021-04-26T03:49:00,2.6,北北西,7.4,北,9,48.3,0,0,0,0,0,0,1006.7,1020.9
231,2021-04-26T03:50:00,2.6,北北西,7.4,北,9,48.2,0,0,0,0,0,0,1006.7,1020.9
232,2021-04-26T03:51:00,2.5,北北西,7.4,北,9.1,48.3,0,0,0,0,0,0,1006.7,1020.9
233,2021-04-26T03:52:00,2.6,北北西,7.4,北,9,48.1,0,0,0,0,0,0,1006.6,1020.8
234,2021-04-26T03:53:00,2.7,北北西,7.4,北,9.1,47.8,0,0,0,0,0,0,1006.6,1020.8
235,2021-04-26T03:54:00,2.8,北北西,7.4,北,9.1,47.5,0,0,0,0,0,0,1006.6,1020.8
236,2021-04-26T03:55:00,2.8,北北西,7.4,北,9.1,47.4,0,0,0,0,0,0,1006.6,1020.8
237,2021-04-26T03:56:00,2.7,北,7.4,北,9,47.4,0,0,0,0,0,0,1006.6,1020.8
238,2021-04-26T03:57:00,2.6,北北西,6.8,北北東,9,47.7,0,0,0,0,0,0,1006.6,1020.8
239,2021-04-26T03:58:00,2.7,北,6.8,北北東,9.1,47.6,0,0,0,0,0,0,1006.6,1020.8
240,2021-04-26T03:59:00,2.7,北,6.8,北北東,9,47.3,0,0,0,0,0,0,1006.6,1020.8
241,2021-04-26T04:00:00,2.7,北北西,6.8,北北東,9.1,47.3,0,0,0,0,0,0,1006.6,1020.8
242,2021-04-26T04:01:00,2.9,北北西,6.8,北北東,9.1,47.4,0,0,0,0,0,0,1006.7,1020.9
243,2021-04-26T04:02:00,2.7,北,6.8,北北東,9,47.3,0,0,0,0,0,0,1006.6,1020.8
244,2021-04-26T04:03:00,2.8,北北西,7.1,北北西,9.1,47.4,0,0,0,0,0,0,1006.6,1020.8
245,2021-04-26T04:04:00,3,北北西,7.9,北,9.2,47.1,0,0,0,0,0,0,1006.6,1020.8
246,2021-04-26T04:05:00,3,北北西,7.9,北,9.2,46.9,0,0,0,0,0,0,1006.7,1020.9
247,2021-04-26T04:06:00,3.2,北北西,7.9,北,9.2,46.7,0,0,0,0,0,0,1006.7,1020.9
248,2021-04-26T04:07:00,3.3,北北西,7.9,北,9.2,46.9,0,0,0,0,0,0,1006.7,1020.9
249,2021-04-26T04:08:00,3.3,北北西,7.9,北,9.2,47,0,0,0,0,0,0,1006.7,1020.9
250,2021-04-26T04:09:00,3.5,北北西,7.9,北,9.2,46.7,0,0,0,0,0,0,1006.7,1020.9
251,2021-04-26T04:10:00,3.5,北北西,7.9,北,9.1,46.7,0,0,0,0,0,0,1006.7,1020.9
252,2021-04-26T04:11:00,3.5,北北西,7.9,北,9,46.7,0,0,0,0,0,0,1006.7,1020.9
253,2021-04-26T04:12:00,3.6,北北西,7.9,北,9.1,46.8,0,0,0,0,0,0,1006.8,1021
254,2021-04-26T04:13:00,3.5,北北西,7.9,北,9.1,46.9,0,0,0,0,0,0,1006.7,1020.9
255,2021-04-26T04:14:00,3.3,北北西,7.3,北北東,9.1,47,0,0,0,0,0,0,1006.7,1020.9
256,2021-04-26T04:15:00,3.2,北北西,7.3,北北東,8.9,47.3,0,0,0,0,0,0,1006.8,1021
257,2021-04-26T04:16:00,3.1,北,7.3,北北東,8.9,47.9,0,0,0,0,0,0,1006.7,1020.9
258,2021-04-26T04:17:00,3.2,北,7.3,北北東,8.8,48.7,0,0,0,0,0,0,1006.7,1020.9
259,2021-04-26T04:18:00,3.3,北,7.3,北北東,8.8,49.3,0,0,0,0,0,0,1006.7,1020.9
260,2021-04-26T04:19:00,3.3,北,7.3,北北東,8.8,49.2,0,0,0,0,0,0,1006.7,1020.9
261,2021-04-26T04:20:00,3.2,北,7.3,北北東,8.9,48.7,0,0,0,0,0,0,1006.7,1020.9
262,2021-04-26T04:21:00,3.1,北,7.3,北北東,9,48.2,0,0,0,0,0,0,1006.7,1020.9
263,2021-04-26T04:22:00,3.1,北,7.3,北北東,9,48,0,0,0,0,0,0,1006.7,1020.9
264,2021-04-26T04:23:00,3.1,北,6.9,北北東,9,47.5,0,0,0,0,0,0,1006.7,1020.9
265,2021-04-26T04:24:00,3,北,6.9,北北東,9,47.5,0,0,0,0,0,0,1006.7,1020.9
266,2021-04-26T04:25:00,3.1,北,6.9,北北東,8.9,47.7,0,0,0,0,0,0,1006.7,1020.9
267,2021-04-26T04:26:00,3.2,北,6.9,北北東,8.9,47.9,0,0,0,0,0,0,1006.7,1020.9
268,2021-04-26T04:27:00,3.1,北,6.9,北北東,8.9,48.2,0,0,0,0,0,0,1006.7,1020.9
269,2021-04-26T04:28:00,3.1,北,6.9,北北東,8.7,48.8,0,0,0,0,0,0,1006.7,1020.9
270,2021-04-26T04:29:00,3.2,北,6.8,北,8.7,49.8,0,0,0,0,0,0,1006.7,1020.9
271,2021-04-26T04:30:00,3.3,北,6.8,北,8.6,50.2,0,0,0,0,0,0,1006.6,1020.8
272,2021-04-26T04:31:00,3.4,北,6.8,北,8.6,50.3,0,0,0,0,0,0,1006.6,1020.8
273,2021-04-26T04:32:00,3.6,北,6.8,北,8.6,50.1,0,0,0,0,0,0,1006.7,1020.9
274,2021-04-26T04:33:00,3.6,北,6.8,北,8.8,50.1,0,0,0,0,0,0,1006.7,1020.9
275,2021-04-26T04:34:00,3.6,北,6.8,北,8.8,49.9,0,0,0,0,0,0,1006.8,1021
276,2021-04-26T04:35:00,3.5,北北東,6.8,北,8.8,49.9,0,0,0,0,0,0,1006.7,1020.9
277,2021-04-26T04:36:00,3.5,北北東,6.6,北北東,8.7,49.9,0,0,0,0,0,0,1006.7,1020.9
278,2021-04-26T04:37:00,3.3,北,6.6,北北東,8.6,50,0,0,0,0,0,0,1006.7,1020.9
279,2021-04-26T04:38:00,3.2,北,6.6,北北東,8.6,50.3,0,0,0,0,0,0,1006.8,1021
280,2021-04-26T04:39:00,2.9,北,6.6,北北東,8.6,50.3,0,0,0,0,0,0,1006.8,1021
281,2021-04-26T04:40:00,2.9,北,6.6,北北東,8.6,50.3,0,0,0,0,0,0,1006.8,1021
282,2021-04-26T04:41:00,2.9,北,6.6,北北東,8.6,50.5,0,0,0,0,0,0,1006.8,1021
283,2021-04-26T04:42:00,2.8,北,6.3,北,8.6,50.8,0,0,0,0,0,0,1006.7,1020.9
284,2021-04-26T04:43:00,2.9,北,6.3,北北東,8.5,50.9,0,0,0,0,0,0,1006.8,1021
285,2021-04-26T04:44:00,3,北,6.3,北北東,8.5,51,0,0,0,0,0,0,1006.8,1021
286,2021-04-26T04:45:00,3.2,北,6.3,北北東,8.6,51.1,0,0,0,0,0,0,1006.8,1021
287,2021-04-26T04:46:00,3.2,北,6.3,北北東,8.6,50.9,0,0,0,0,0,0,1006.7,1020.9
288,2021-04-26T04:47:00,3.3,北北東,6.3,北北東,8.5,50.6,0,0,0,0,0,0,1006.8,1021
289,2021-04-26T04:48:00,3.2,北北東,6.3,北北東,8.5,50.8,0,0,0,0,0,0,1006.8,1021
290,2021-04-26T04:49:00,3.4,北北東,6.3,北北東,8.5,51.2,0,0,0,0,0,0,1006.8,1021
291,2021-04-26T04:50:00,3.5,北北東,6.3,北北東,8.5,51.4,0,0,0,0,0,0,1006.8,1021
292,2021-04-26T04:51:00,3.6,北北東,6.3,北北東,8.6,51.8,0,0,0,0,0,0,1006.8,1021
293,2021-04-26T04:52:00,3.4,北北東,6.3,北北東,8.6,51.6,0,0,0,0,0,0,1006.8,1021
294,2021-04-26T04:53:00,3.4,北,8.2,北北東,8.6,50.9,0,0,0,0,0,0,1006.8,1021
295,2021-04-26T04:54:00,3.3,北,8.2,北北東,8.7,50.2,0,0,0,0,0,0,1006.8,1021
296,2021-04-26T04:55:00,3.4,北,8.2,北北東,8.9,49.7,0,0,0,0,0,0,1006.8,1021
297,2021-04-26T04:56:00,3.5,北,8.2,北北東,8.9,49.8,0,0,0,0,0,0,1006.8,1021
298,2021-04-26T04:57:00,3.6,北,8.2,北北東,9,50.3,0,0,0,0,0,0,1006.8,1021
299,2021-04-26T04:58:00,3.6,北,8.2,北北東,8.8,49.8,0,0,0,0,0,0,1006.8,1021
300,2021-04-26T04:59:00,3.5,北,8.2,北北東,8.6,49.8,0,0,0,0,0,0,1006.8,1021
301,2021-04-26T05:00:00,3.5,北,8.2,北北東,8.6,50.3,0,0,0,0,0,0,1006.8,1021
302,2021-04-26T05:01:00,3.4,北,8.2,北北東,8.7,50.7,0,0,0,0,0,0,1006.8,1021
303,2021-04-26T05:02:00,3.5,北,8.2,北北東,8.7,50.7,0,0,0,0,0,0,1006.8,1021
304,2021-04-26T05:03:00,3.5,北,7.2,北,8.7,50.2,0,0,0,0,0,0,1006.8,1021
305,2021-04-26T05:04:00,3.6,北,7.2,北,8.8,50.6,0,0,0,0,0,0,1006.9,1021.1
306,2021-04-26T05:05:00,3.4,北,7.2,北,8.7,50.4,0,0,0,0,0,0,1006.8,1021
307,2021-04-26T05:06:00,3.1,北,6.4,北,8.6,50.5,0,0,0,0,0,0,1006.8,1021
308,2021-04-26T05:07:00,3.1,北,6.3,北,8.6,50.8,0,0,0,0,0,0,1006.8,1021
309,2021-04-26T05:08:00,3.1,北,8.5,北北東,8.7,50.7,0,0,0,0,0,0,1006.9,1021.1
310,2021-04-26T05:09:00,3.2,北,8.5,北北東,8.7,50.4,0,0,0,0,0,0,1006.9,1021.1
311,2021-04-26T05:10:00,3.1,北,8.5,北北東,8.7,50.1,0,0,0,0,0,0,1006.9,1021.1
312,2021-04-26T05:11:00,3,北,8.5,北北東,8.7,50,0,0,0,0,0,0,1006.9,1021.1
313,2021-04-26T05:12:00,3,北,8.5,北北東,8.7,50.2,0,0,0,0,0,0,1006.9,1021.1
314,2021-04-26T05:13:00,2.7,北,8.5,北北東,8.6,50.5,0,0,0,0,0,0,1006.9,1021.1
315,2021-04-26T05:14:00,2.8,北,8.5,北北東,8.7,50.7,0,0,0,0,0,0,1006.9,1021.1
316,2021-04-26T05:15:00,2.8,北,8.5,北北東,8.8,50.4,0,0,0,0,0,0,1006.9,1021.1
317,2021-04-26T05:16:00,3,北,8.5,北北東,8.9,49.9,0,0,0,0,0,0,1006.9,1021.1
318,2021-04-26T05:17:00,2.8,北,8.5,北北東,9,49.4,0,0,0,0,0,0,1006.9,1021.1
319,2021-04-26T05:18:00,2.8,北,6.6,北北東,9,49.3,0,0,0,0,0,0,1006.9,1021.1
320,2021-04-26T05:19:00,2.8,北,7.7,北北東,9,49.4,0,0,0,0,0,0,1006.9,1021.1
321,2021-04-26T05:20:00,2.9,北,7.7,北北東,8.9,49.7,0,0,0,0,0,0,1006.9,1021.1
322,2021-04-26T05:21:00,3,北,7.7,北北東,8.9,49.9,0,0,0,0,0,0,1006.9,1021.1
323,2021-04-26T05:22:00,3,北,7.7,北北東,8.9,50.1,0,0,0,0,0,0,1006.9,1021.1
324,2021-04-26T05:23:00,3.2,北,7.7,北北東,8.9,50,0,0,0,0,0,0,1007,1021.2
325,2021-04-26T05:24:00,3.1,北,7.7,北北東,9,49.9,0,0,0,0,0,0,1006.9,1021.1
326,2021-04-26T05:25:00,3.2,北,7.7,北北東,9,49.5,0,0,0,0,0,0,1006.9,1021.1
327,2021-04-26T05:26:00,3.1,北,7.7,北北東,9,49.4,0,0,0,0,0,0,1007,1021.2
328,2021-04-26T05:27:00,3.1,北,7.7,北北東,9,49.5,0,0,0,0,0,0,1007,1021.2
329,2021-04-26T05:28:00,3.1,北,7.7,北北東,8.9,49.6,0,0,0,0,0,0,1007,1021.2
330,2021-04-26T05:29:00,3.1,北,7.3,北,8.8,50,0,0,0,0,0,0,1006.9,1021.1
331,2021-04-26T05:30:00,3.1,北,7.3,北,8.8,50.4,0,0,0,0,0,0,1007,1021.2
332,2021-04-26T05:31:00,3,北,6.8,北,8.9,50.6,0,0,0,0,0.01,0,1007,1021.2
333,2021-04-26T05:32:00,3.1,北,6.9,北北東,9,50.3,0,0,0,0,0.01,0,1007,1021.2